Showing default

SES 22, 52933

Orbit data source: Space-Track

SES 22, 52933 is a payload satellite owned by SES (LU) in GEO that was launched on Wed, 29 Jun 2022 UTC via an FALCON 9 launch vehicle from the Air Force Eastern Test Range (AFETR). Payload-class satellites include a variety of spacecraft equipped with specific instruments for various scientific and technological missions. These include communications satellites like Starlink; space stations such as the ISS; scientific satellites like the Hubble; Earth observation satellites from companies like Planet Labs, Umbra, and HawkEye 360; GPS; miniature CubeSats for education and research; and military/defense satellites.

Loading next visibility...
Identifier
52933, 2022-071A
Orbit
GEO
Country
Flag of LULU / SES
Related business
Manufacturer
Thales Alenia
Mission
Operational Commercial Communications
Bus & Motor
SPACEBUS 4000B2, S400
Mass
3,500 kg wet, ~2,000 kg dry
Launch date (UTC)
2022-06-29 (4 years ago)
Launch vehicle
FALCON 9
Launch site
Air Force Eastern Test Range (AFETR)
Object type
Payload
Rocket body
Debris
Shape & HBR
Box + 2 Pan, 15.0 m
Radar Cross Section
48.465 m², Large (>1 m²)

Expand to show TLE details & history
Last TLE update: 16 hours ago

TLE from 16 hours ago
0 SES 22
1 52933U 22071A   26039.73786878  .00000112  00000-0  00000-0 0  9992
2 52933   0.0182  89.6721 0000972 232.0115 303.7511  1.00271235  6232
Epoch: 2026-02-08T17:42Z
TLE epoch observation values (Epoch: 2026-02-08T17:42:31.862Z)
Latitude
0.00444°
Longitude
-139.02307°
Altitude
35,783.949 km
Speed
3.075 km/s
True Right ascension
17h 41m 48s
True Declination
0° 00' 16"
Sunlit
Object was in daylight at epoch
Visualization orbit readout
Latitude
Unknown
Longitude
Unknown
Altitude
Unknown
Speed
Unknown
Apparent Right ascension
Unknown
Apparent Declination
Unknown
Sunlit
N/A
Visualization observer readout
Local Sidereal Time
11:31:01
Azimuth
Unknown
Elevation
Unknown
Doppler factor
Unknown
Orbital elements
Apogee altitude
35,791.918 km
Perigee altitude
35,783.721 km
Semi-major axis
42,165.957 km
Eccentricity
0.0001
Inclination
0.0182°
RAAN
89.6721°
Arg. of periapsis
232.0115°
True anomaly
303.74184°
Mean anomaly
303.7511°
Eccentric anomaly
303.74647°
Mean motion
0.25067 °/min
Orbital period
1,436.16 mins
BSTAR
0
Loading maneuver chart data...
Computing Atmospheric mass density...
Loading historical data...
Loading historical data...
Loading historical data...
Loading historical data...
Loading historical data...
Loading historical data...
Loading historical data...
Other satellites on launch #71 in the year 2022 (2022-06-29 UTC)

Documentation

Showing up to 5 results
|